{"data":{"norad_id":54026,"epoch":"2026-05-24T23:41:20.554080Z","epoch_age_seconds":73204,"freshness":"FRESH","line1":"1 54026U 22128A   26144.98704345  .00000076  00000+0  00000+0 0  9990","line2":"2 54026   0.0381  86.5318 0001911 337.4842  40.8987  1.00272659 13513","mean_motion":1.00272659,"eccentricity":0.0001911,"inclination_deg":0.0381,"raan_deg":86.5318,"arg_perigee_deg":337.4842,"mean_anomaly_deg":40.8987,"bstar":0,"rev_number":1351,"period_min":1436.0843866721,"perigee_km":35778.292315587,"apogee_km":35794.407582499,"semimajor_km":42164.486949043,"source":"CELESTRAK","updated_at":"2026-05-25T13:38:14.338188Z"}}